CZ-4C R/B, 43012

Orbit data source: Space-Track

CZ-4C R/B, 43012 is space debris in SSO originally from a launch on Tue, 14 Nov 2017 UTC via a CHANG ZHENG 4C launch vehicle from the Taiyaun Space Center, China (TSC). Debris objects in space refer to the collection of defunct objects orbiting the Earth. Examples of debris include non-operational satellites, rocket bodies, and fragments generated from explosions, collisions, or faulty payload assembly.

Loading next visibility...
Identifier
43012, 2017-072C
Orbit
SSO
Country
Flag of CNCN / PRC
Related business
Flag of CNFudan University (CN)
Manufacturer
Fudan Univ
Mission
Amateur Technology
Bus & Motor
XINYUN, Unknown motor
Mass
1,001 kg wet, 1 kg dry
Launch date (UTC)
2017-11-14 (9 years ago)
Launch vehicle
CHANG ZHENG 4C
Launch site
Taiyaun Space Center, China (TSC)
Object type
Payload
Rocket body
Debris
Shape & HBR
Cyl + Box, 1.5 m
Radar Cross Section
12.673 m², Large (>1 m²)

Expand to show TLE details & history
Last TLE update: 2 days ago

TLE from 2 days ago
0 CZ-4C R/B
1 43012U 17072C   26171.26475572  .00000401  00000-0  88135-4 0  9996
2 43012  98.5798 279.3651 0123204 142.0330 218.9634 14.58785768457082
Epoch: 2026-06-20T06:21Z
TLE epoch observation values (Epoch: 2026-06-20T06:21:14.894Z)
Latitude
-0.00001°
Longitude
-84.42882°
Altitude
768.281 km
Speed
7.434 km/s
True Right ascension
18h 37m 27s
True Declination
0° 00' 00"
Sunlit
Object was in full shadow at epoch
Visualization orbit readout
Latitude
Unknown
Longitude
Unknown
Altitude
Unknown
Speed
Unknown
Apparent Right ascension
Unknown
Apparent Declination
Unknown
Sunlit
N/A
Visualization observer readout
Local Sidereal Time
21:39:23
Azimuth
Unknown
Elevation
Unknown
Doppler factor
Unknown
Orbital elements
Apogee altitude
781.331 km
Perigee altitude
607.063 km
Semi-major axis
7,072.334 km
Eccentricity
0.01232
Inclination
98.5798°
RAAN
279.3651°
Arg. of periapsis
142.033°
True anomaly
218.08616°
Mean anomaly
218.9634°
Eccentric anomaly
218.52373°
Mean motion
3.64921 °/min
Orbital period
98.65 mins
BSTAR
0.000088135
Loading maneuver chart data...
Computing Atmospheric mass density...
Loading historical data...
Loading historical data...
Loading historical data...
Loading historical data...
Loading historical data...
Loading historical data...
Loading historical data...
Other satellites on launch #72 in the year 2017 (2017-11-14 UTC)

Documentation

Showing up to 5 results
|